This demonstration page uses our WeatherBlox Daily Observations layout. Learn more.

Left ArrowRight Arrow

41.86663, -103.66717

Hourly Observations for October 24, 2018

Temp ( °F °C ) Dew Point ( °F °C ) Humidity (%) Winds ( mph kmh ) Pressure ( in mb ) Visibility ( mi km ) Precip ( " mm )
12:53 am 00:53 Clear 48 8.9 46 7.8 93 93 ESE 14 22 30.05 1018 10 16 0.00 0.00
1:53 am 01:53 Clear 47 8.3 47 8.3 100 100 E 8 13 30.03 1017 10 16 0.00 0.00
2:53 am 02:53 Clear 49 9.4 48 8.9 97 97 ESE 14 22 30.01 1016 10 16 0.00 0.00
3:53 am 03:53 Partly Cloudy 48 8.9 47 8.3 96 96 ESE 10 17 29.99 1016 10 16 0.00 0.00
4:53 am 04:53 Cloudy 47 8.3 47 8.3 100 100 ESE 10 17 29.99 1016 10 16 0.00 0.00
5:53 am 05:53 Cloudy 48 8.9 48 8.9 100 100 ESE 12 19 30.00 1016 10 16 0.00 0.00
6:53 am 06:53 Cloudy with Light Rain 47 8.3 47 8.3 100 100 ESE 9 15 30.00 1016 8 13 0.00 0.03
7:53 am 07:53 Cloudy with Light Rain 47 8.3 47 8.3 100 100 SE 8 13 30.00 1016 8 13 0.00 0.03
8:53 am 08:53 Cloudy with Mist and Fog 48 8.9 48 8.9 100 100 ESE 12 19 29.99 1016 5 8 0.00 0.03
9:53 am 09:53 Cloudy 50 10 50 10 100 100 ESE 8 13 30.01 1016 7 11 0.00 0.00
10:53 am 10:53 Sunny 55 12.8 52 11.1 90 90 ESE 10 17 29.99 1016 10 16 0.00 0.00
11:53 am 11:53 Sunny 58 14.4 53 11.7 84 84 SE 10 17 29.96 1015 10 16 0.00 0.00
12:53 pm 12:53 Sunny 64 17.8 52 11.1 65 65 SSE 9 15 29.91 1013 10 16 0.00 0.00
1:53 pm 13:53 Sunny 66 18.9 50 10 56 56 SSE 14 22 29.86 1011 10 16 0.00 0.00
2:53 pm 14:53 Partly Cloudy 65 18.3 50 10 59 59 SE 12 19 29.85 1011 10 16 0.00 0.00
3:53 pm 15:53 Sunny 65 18.3 50 10 59 59 SE 14 22 29.84 1011 10 16 0.00 0.00
4:53 pm 16:53 Sunny 63 17.2 50 10 63 63 SE 12 19 29.85 1011 10 16 0.00 0.00
5:53 pm 17:53 Sunny 59 15 51 10.6 75 75 SE 12 19 29.86 1011 10 16 0.00 0.00
6:53 pm 18:53 Clear 55 12.8 52 11.1 90 90 SE 9 15 29.88 1012 10 16 0.00 0.00
7:53 pm 19:53 Clear 54 12.2 51 10.6 90 90 SE 10 17 29.89 1012 10 16 0.00 0.00
8:53 pm 20:53 Clear 50 10 50 10 100 100 ESE 8 13 29.91 1013 10 16 0.00 0.00
9:53 pm 21:53 Clear 47 8.3 47 8.3 100 100 E 7 11 29.91 1013 10 16 0.00 0.00
10:53 pm 22:53 Clear 46 7.8 46 7.8 100 100 E 8 13 29.91 1013 10 16 0.00 0.00
11:53 pm 23:53 Clear 44 6.7 44 6.7 100 100 E 7 11 29.90 1013 10 16 0.00 0.00

Powered by AerisWeather